Tracking 18942 objects as of 18-Jan-2018
HD Live streaming from Space Station
objects crossing your sky now

FENGNIAO 1 (FN-1)

Track FENGNIAO 1 (FN-1) now!
10-day predictions
FENGNIAO 1 (FN-1) is classified as:


NORAD ID: 38998
Int'l Code: 2012-064B
Perigee: 446.3 km
Apogee: 455.6 km
Inclination: 97.3 °
Period: 93.5 minutes
Semi major axis: 6821 km
RCS: 0.5404 m2 (medium)
Launch date: November 18, 2012
Source: People's Republic of China (PRC)
Launch site: Taiyaun Space Center, China (TSC)

FENGNIAO 1 consists of two microsatellites to prove formation-flying techniques.
aabbcc
Your satellite tracking list
Your tracking list is empty




NASA's NSSDC Master Catalog

Two Line Element Set (TLE):
1 38998U 12064B   18018.11531393  .00001253  00000-0  32673-4 0  9990
2 38998  97.3095  42.1517 0006820  20.7912 339.3611 15.40766805289039
Source of the keplerian elements: AFSPC